NOAA 17 DEB

Satellite information

Favourite Embed

Satellite Type and Status

DEBRISIN ORBIT

Key statistics

Satellite NOAA 17 DEB at a glance.

Uptime

8518

Days in orbit

Revolutions

≈ 14.6

Per day

Orbit

SSO

Sun Synchronous Orbit

Inclination

98.7

Latest

Satellite identification and parameters

Extended collection of information and parameters for NOAA 17 DEB.

Object identification

Identified? True

Debris? True

Object name: NOAA 17 DEB

International designator: 2002-032H

Object number (NORAD): 48167

Object ID (CCSDS): 48167

Country: UNITED STATES OF AMERICA (US)

Current information (Y/N): Y

RCS size: SMALL

Orbital parameters

Period: 98.488 minutes

Inclination: 98.7199 deg

SMA: 7064.492 km

Apoapsis: 705.901 km

Periapsis: 666.813 km

RAAN: 279.5154 deg

Eccentricy: 0.00276653

Argument of periapsis: 118.3021 deg

Mean anomaly: 242.0975 deg

Mean motion: 14.62114451 rev/day

Mean motion (dot): 0.00020893 rev/day2

B* drag term: 0.0041326293 1/REarth

Two-line elements (TLE)

Creation date: Oct. 19, 2025, 2:20 a.m.

Reference frame: TEME

Reference center: EARTH

Epoch: Oct. 18, 2025, 10:03 a.m. UTC

TLE line 0: 0 NOAA 17 DEB

TLE line 1: 1 48167U 02032H 25291.41883074 .00020893 00000-0 41326-2 0 9997

TLE line 2: 2 48167 98.7199 279.5154 0027665 118.3021 242.0975 14.62114451241157

Live tracking on map

Real-time ground track for satellite NOAA 17 DEB.

In-orbit conjunctions

A list of the most updated potential collisions computed for object NOAA 17 DEB.

Target Orbit TCA Probability of collision Miss distance Type
RUBIN 3/SL-8 SSO 2024-10-07 08:25:03 0.0001135085 473.0 (m) PAYLOAD

Associated space launch

NOAA M carried weather imagers and microwave and infrared sounders, as well as a SARSAT search-and-rescue package. It had an on-orbit mass of 1475 kg.

NOAA 17 DEB was lifted into orbit during the mission ‘Titan II SLV | NOAA 17’, on board a Titan II SLV space rocket.

The launch took place on June 24, 2002, 6:23 p.m. from Space Launch Complex 4W.

For more information about the launch, click the button.

Launch to space Titan II SLV | NOAA 17
Titan II SLV | NOAA 17

Agency: N/A

Status: Launch Successful

Launch date: June 24, 2002, 6:23 p.m. UTC

Rocket: Titan II SLV

Launch pad: Space Launch Complex 4W

Location: Vandenberg SFB, CA, USA

...

Latest news about this satellite

There are no fresh news available about this satellite. Check back as we update our databases every day.


Newsletter sign-up

Weekly statistics, charts and insights to help you stay on top of the space industry.